Regional Weather Roundup
Issued by NWS Charleston, SC

Current Version | Previous Version | Text Only | Print | Product List | Glossary Off
Versions: 1 2 3 4 5 6 7 8 9 10 11 12 13 14 15 16 17 18 19 20 21 22 23 24 25 26 27 28 29 30 31 32 33 34 35 36 37 38 39 40 41 42 43 44 45 46 47 48 49 50

154
ASUS42 KCHS 091612
RWRCHS

REGIONAL WEATHER ROUNDUP
NATIONAL WEATHER SERVICE CHARLESTON SC
1100 AM EST FRI DEC 09 2016

NOTE: "FAIR" INDICATES FEW OR NO CLOUDS BELOW 12,000 FEET WITH NO
SIGNIFICANT WEATHER AND/OR OBSTRUCTIONS TO VISIBILITY.

NOT ALL STATIONS ARE QUALITY CONTROLLED. USE DATA WITH CAUTION...
ESPECIALLY DEWPOINT OBSERVATIONS.

SCZ027-030-031-034>040-042>050-091700-
...SOUTHEAST SOUTH CAROLINA...

CITY           SKY/WX    TMP DP  RH WIND       PRES   REMARKS
N CHARLESTON   MOSUNNY   47  19  33 N10       30.42F
WATERFRONT PRK   N/A     44  28  53 N10       30.42R
MOUNT PLEASANT NOT AVBL
JOHNS ISLAND   FAIR      46  21  36 N10       30.42S
PINOPOLIS        N/A     39  25  56 N8        30.37R WCI  34
MONCKS CORNER  FAIR      43  19  39 NE9       30.43F
SUMMERVILLE    FAIR      45  21  39 N10       30.44F
BEAUFORT MCAS  SUNNY     48  21  34 N9        30.42F
BEAUFORT ARPT  FAIR      46  27  46 N8        30.42F HAZE
HILTON HEAD IS SUNNY     50  23  34 N14       30.42
WALTERBORO     SUNNY     46  19  34 N7        30.43F
ALLENDALE      FAIR      45  19  36 NE5G13    30.43F

...SOUTHERN MIDLANDS AND PEE DEE...

CITY           SKY/WX    TMP DP  RH WIND       PRES   REMARKS
GEORGETOWN     NOT AVBL
KINGSTREE      FAIR      41  19  42 NW7       30.44F
ORANGEBURG     SUNNY     42  18  37 NE7       30.43F
BARNWELL       NOT AVBL
AIKEN          FAIR      37  16  41 N6        30.48R WCI  33
MANNING        FAIR      41  19  42 NE6       30.44F
COLUMBIA       MOSUNNY   43  18  36 VRB6      30.45S
SUMTER         SUNNY     41  17  37 N9        30.42F
FLORENCE       SUNNY     41  19  41 N7        30.44S
MYRTLE BEACH   SUNNY     43  18  36 N16       30.44S
N MYRTLE BEACH SUNNY     42  20  41 N12       30.41S

$$

GAZ063-065-086>088-099>101-113>116-118-119-134>141-150-091700-
...SOUTHEAST GEORGIA...

CITY           SKY/WX    TMP DP  RH WIND       PRES   REMARKS
SAVANNAH ARPT  MOSUNNY   49  21  33 N7        30.43F
HUNTER AAF     SUNNY     49  28  44 N8        30.39F
FORT STEWART   SUNNY     48  21  35 CALM      30.40F
STATESBORO     SUNNY     46  24  41 N8        30.44F
SYLVANIA       SUNNY    N/A N/A N/A NE6       30.44F
CLAXTON        FAIR      47  24  41 NW5       30.44F

...CSRA...CENTRAL AND FAR SOUTHEAST GEORGIA...

CITY           SKY/WX    TMP DP  RH WIND       PRES   REMARKS
THOMSON        SUNNY     41  23  49 CALM      30.51R
AUGUSTA-BUSH   SUNNY     46  17  31 NE9       30.46R
AUGUSTA-DANIEL SUNNY     43  15  32 N9        30.46R
SWAINSBORO     FAIR      43  21  42 N5        30.46S
VIDALIA        SUNNY     46  28  49 NE7       30.44F
EASTMAN        FAIR      44   4  19 N5        30.49F
HAZLEHURST     FAIR      45  22  39 CALM      30.44S
ALMA           SUNNY     46  22  38 N7        30.44S
WAYCROSS       SUNNY     49  27  41 NE8       30.44S
JESUP          FAIR      46  30  53 N8        30.43F
BAXLEY         FAIR      46  28  49 NE7       30.44S
BRUNSWICK      SUNNY     50  30  46 N8        30.43S
SAINT SIMONS   SUNNY     50  25  37 N13       30.41S

$$

SCZ027-028-034-036>038-045-046-048>050-GAZ119-141-091700-
...LAKE AND SUPPLEMENTAL COASTAL OBSERVATIONS...

STATION/POSITION TIME  TEMP    WIND        PRES    WAVE   SWELL
                       AIR SEA DIR/SP/G            HT/PER HT/PER/DIR
                 (UTC) (F)     (DEG/KT/KT) (MB)    (FT/S) (FT/S/D)
WINYAH BAY       1445   40      10/  7     1030.0
LAKE MURRAY      1520   39      30/  2/  7 1030.5
ACE BASIN NERRS  1445   44      10/  4     1030.0
FORT PULASKI     1548   45 60   20/  8/ 10 1030.2F
SAPELO ISLAND    1500   46     360/ 13     1030.0

$$

ANZ835-935-AMZ111-154-330-350-352-354-370-450-454-472-091700-
...C-MAN AND BUOY OBSERVATIONS...

STATION/POSITION TIME  TEMP    WIND        PRES    WAVE   SWELL
                       AIR SEA DIR/SP/G            HT/PER HT/PER/DIR
                 (UTC) (F)     (DEG/KT/KT) (MB)    (FT/S) (FT/S/D)
BUOY 41004       1450   50 73  360/ 17/ 23 1028.2    6/ 7   2/260/14
BUOY 41008       1450   50 63   10/ 16/ 19 1029.1    4/ 5   2/130/11
FOLLY BEACH CMAN 1600   45     340/  9/ 13 1030.3F
CAPERS NEARSHORE 1508   43 60   20/ 16/ 23 1029.7R
FRIPP NEARSHORE  1508   45 60   10/ 14/ 17 1030.1R


STATION/POSITION TIME  TEMP    WIND        PRES    WAVE   SWELL
                       AIR SEA DIR/SP/G            HT/PER HT/PER/DIR
                 (UTC) (F)     (DEG/KT/KT) (MB)    (FT/S) (FT/S/D)
5E ST. MARYS GA  1530      64                N/A     4/ 5
FRYING PAN BUOY  1550   45 72  360/ 16/ 21 1028.5R   5/ 6
BUOY 41025       1550   42 75  350/ 17/ 25 1026.4R   5/ 8   3/ 50/ 8
CAPE LOOKOUT NC  1600   40     340/ 12/ 15 1027.4F
BUOY 41002       1450   62 73  350/ 17/ 23 1022.8    7/ 8   3/ 50/11
BUOY 41010       NOT AVBL
ST AUGUSTINE FL  1600   52 65  340/ 19/ 21 1029.5F


$$




USA.gov is the U.S. government's official web portal to all federal, state and local government web resources and services.